Regional Weather Roundup
Issued by NWS

Home | Current Version | Previous Version | Graphics & Text | Print | Product List | Glossary On
Versions: 1 2 3 4 5 6 7 8 9 10 11 12 13 14 15 16 17 18 19 20 21 22 23 24 25 26 27 28 29 30 31 32 33 34 35 36 37 38 39 40 41 42 43 44 45 46 47 48 49 50
359
ASUS45 KCYS 280110
RWRWY

WYOMING REGIONAL WEATHER ROUNDUP
NATIONAL WEATHER SERVICE CHEYENNE WY
600 PM MST MON FEB 27 2017

NOTE:  "FAIR" INDICATES FEW OR NO CLOUDS BELOW 12,000 FEET
WITH NO SIGNIFICANT WEATHER AND/OR OBSTRUCTIONS TO VISIBILITY.

WYZ001-280200-
YELLOWSTONE NATIONAL PARK

CITY           SKY/WX    TMP DP  RH WIND       PRES   REMARKS
LK YELLOWSTONE   N/A     14  10  84 VRB6      29.52R WCI   5
W YELLOWSTONE  NOT AVBL

$$
WYZ002>013-054>058-071-098>099-280200-
NORTHERN WYOMING

CITY           SKY/WX    TMP DP  RH WIND       PRES   REMARKS
JACKSON        LGT SNOW  18  14  86 SW17      29.61R WCI   2
CODY           FAIR      30  17  58 SW10      29.53R WCI  21
GREYBULL       FAIR      34  19  54 CALM      29.54R
WORLAND        FAIR      29  20  69 S8        29.53S WCI  21
SHERIDAN       FAIR      27  18  69 SE14      29.60R WCI  16
BUFFALO        FAIR      28  11  48 CALM      29.57R
GILLETTE       FAIR      30  14  51 NE3       29.59R
HULETT         FAIR      32  16  51 MISG      29.61S
NEWCASTLE      FAIR      28  25  86 S5        29.61S WCI  23

$$
WYZ014>020-022>026-101>103-280200-
CENTRAL WYOMING

CITY           SKY/WX    TMP DP  RH WIND       PRES   REMARKS
BIG PINEY      MOCLDY    16   9  74 NW10      29.62R WCI   4
PINEDALE       CLOUDY    19  12  73 W17       29.61R WCI   4
DUBOIS         FAIR      19   7  58 W24G33    29.49S WCI   2
LANDER         FAIR      27  14  58 SW15      29.55R WCI  15
RIVERTON       FAIR      24  15  68 SW9       29.55R WCI  14
CASPER         CLOUDY    29  20  69 SW17G29   29.58S WCI  17
DOUGLAS        FAIR      25  21  85 CALM      29.61R

$$
WYZ021-027>030-104>119-280200-
SOUTHERN WYOMING

CITY           SKY/WX    TMP DP  RH WIND       PRES   REMARKS
EVANSTON       LGT SNOW  19  14  81 W17       29.69R WCI   4
FORT BRIDGER   CLOUDY    21  19  89 W23       29.70R FOG     WCI   5
ROCK SPRINGS   CLOUDY    22  14  71 SW21      29.64R WCI   6
DIXON          SNOW      23  21  93 CALM      29.71R VSB 1/4
RAWLINS        LGT SNOW  22  17  81 SW10      29.65R WCI  11
SARATOGA       LGT SNOW  23  23 100 W10       29.65R VSB 3/4 WCI  12
LARAMIE        LGT SNOW  21  17  84 NW9       29.59R VSB 1   WCI  11
CHEYENNE       CLOUDY    28  22  78 NW17G25   29.59R WCI  16
TORRINGTON     FAIR      30  27  88 NW8       29.62R WCI  22
PINE BLUFFS    FAIR      30  27  86 NW14G23   29.60R WCI  20

$$




USA.gov is the U.S. government's official web portal to all federal, state and local government web resources and services.